SR3WXA Weather Reports


Display with metric or nautical units.
time (UTC)temp
F
wind
direction
speed
MPH
gust
MPH
rain 1hr
in
rain 24hr
in
rain mn
in
humidity
%
barometer
mb
20191017125146 64 193 8.0 14.0 0.00 0.00 0.00 61 1015.0
20191017125040 64 193 8.0 14.0 0.00 0.00 0.00 61 1015.0
20191017124540 64 228 5.0 15.0 0.00 0.00 0.00 61 1015.0
20191017124040 63 182 6.0 15.0 0.00 0.00 0.00 61 1015.0
20191017123540 63 192 4.0 14.0 0.00 0.00 0.00 62 1015.1
20191017123040 63 181 6.0 13.0 0.00 0.00 0.00 62 1015.1
20191017122540 63 200 6.0 12.0 0.00 0.00 0.00 62 1015.1
20191017122040 63 204 6.0 15.0 0.00 0.00 0.00 62 1015.1
20191017121540 63 168 6.0 15.0 0.00 0.00 0.00 62 1015.2
20191017121042 63 199 2.0 11.0 0.00 0.00 0.00 62 1015.2
20191017120515 63 215 6.0 13.0 0.00 0.00 0.00 61 1015.1
20191017120118 63 205 8.0 14.0 0.00 0.00 0.00 61 1014.0
20191017120016 64 192 7.0 15.0 0.00 0.00 0.00 61 1015.1
20191017115516 63 182 5.0 18.0 0.00 0.00 0.00 61 1015.1
20191017115015 64 181 9.0 18.0 0.00 0.00 0.00 60 1015.1
20191017114515 64 218 5.0 13.0 0.00 0.00 0.00 62 1015.1
20191017114015 64 195 6.0 13.0 0.00 0.00 0.00 62 1015.1
20191017113515 64 199 7.0 12.0 0.00 0.00 0.00 63 1015.1
20191017113105 63 205 4.0 10.0 0.00 0.00 0.00 63 1013.9
20191017113016 64 201 5.0 10.0 0.00 0.00 0.00 63 1015.0
20191017112515 64 178 3.0 11.0 0.00 0.00 0.00 64 1015.0
20191017112015 63 214 1.0 11.0 0.00 0.00 0.00 63 1015.0
20191017111030 63 218 2.0 12.0 0.00 0.00 0.00 63 1015.1
20191017110529 63 200 6.0 12.0 0.00 0.00 0.00 62 1015.1
20191017110029 63 215 7.0 12.0 0.00 0.00 0.00 64 1015.2
20191017105530 64 176 2.0 10.0 0.00 0.00 0.00 65 1015.2
20191017105030 63 220 3.0 10.0 0.00 0.00 0.00 64 1015.2
20191017104529 63 225 3.0 8.0 0.00 0.00 0.00 65 1015.2
20191017104029 63 198 1.0 11.0 0.00 0.00 0.00 66 1015.2
20191017103529 63 164 6.0 13.0 0.00 0.00 0.00 66 1015.4
20191017103029 62 214 7.0 13.0 0.00 0.00 0.00 66 1015.4
20191017102532 62 200 3.0 11.0 0.00 0.00 0.00 66 1015.5
20191017102138 62 167 1.0 11.0 0.00 0.00 0.00 67 1015.5
20191017102029 62 167 1.0 11.0 0.00 0.00 0.00 67 1015.5
20191017101528 61 193 6.0 14.0 0.00 0.00 0.00 67 1014.3
20191017101312 62 193 6.0 14.0 0.00 0.00 0.00 67 1015.5
20191017100812 61 177 3.0 12.0 0.00 0.00 0.00 67 1015.6
20191017100312 61 173 5.0 12.0 0.00 0.00 0.00 68 1015.6
20191017100134 60 215 6.0 10.0 0.00 0.00 0.00 68 1014.4
20191017095812 61 196 2.0 11.0 0.00 0.00 0.00 68 1015.6
20191017095355 61 169 5.0 11.0 0.00 0.00 0.00 69 1015.5
20191017095312 61 169 5.0 11.0 0.00 0.00 0.00 69 1015.5
20191017094812 60 205 3.0 9.0 0.00 0.00 0.00 69 1015.6
20191017094312 60 175 3.0 9.0 0.00 0.00 0.00 70 1015.5
20191017093812 60 185 3.0 9.0 0.00 0.00 0.00 70 1015.5
20191017093312 60 0 0.0 10.0 0.00 0.00 0.00 70 1015.5
20191017092812 60 186 4.0 11.0 0.00 0.00 0.00 69 1015.6
20191017092312 60 174 4.0 12.0 0.00 0.00 0.00 69 1015.5
20191017091812 60 158 4.0 12.0 0.00 0.00 0.00 69 1015.5
20191017091552 59 217 6.0 12.0 0.00 0.00 0.00 70 1014.4
20191017091312 60 191 2.0 12.0 0.00 0.00 0.00 70 1015.6
20191017090812 60 163 7.0 12.0 0.00 0.00 0.00 70 1015.5
20191017090312 59 185 4.0 12.0 0.00 0.00 0.00 70 1015.5
20191017090008 59 221 5.0 10.0 0.00 0.01 0.00 70 1014.4
20191017085812 59 213 4.0 13.0 0.00 0.00 0.00 70 1015.5
20191017085312 59 200 4.0 15.0 0.00 0.00 0.00 71 1015.5
20191017084812 59 182 6.0 15.0 0.00 0.00 0.00 71 1015.5
20191017084355 59 162 6.0 11.0 0.00 0.00 0.00 72 1015.5
20191017084312 59 162 6.0 11.0 0.00 0.00 0.00 72 1015.5
20191017083812 58 195 5.0 13.0 0.00 0.01 0.00 73 1015.5
20191017083312 58 162 6.0 13.0 0.00 0.01 0.00 74 1015.5
20191017083112 58 156 6.0 10.0 0.00 0.01 0.00 74 1014.4
20191017082812 58 180 5.0 11.0 0.00 0.01 0.00 74 1015.5
20191017082312 58 170 6.0 11.0 0.00 0.01 0.00 75 1015.4
20191017081812 57 160 5.0 10.0 0.00 0.01 0.00 76 1015.5
20191017081312 57 185 3.0 9.0 0.00 0.01 0.00 78 1015.5
20191017080812 56 156 5.0 9.0 0.00 0.01 0.00 78 1015.5
20191017080047 56 161 6.0 10.0 0.00 0.01 0.00 78 1014.3
20191017080038 56 167 6.0 11.0 0.00 0.01 0.00 78 1015.5
20191017075538 56 160 7.0 10.0 0.00 0.01 0.00 79 1015.5
20191017074501 56 167 6.0 12.0 0.00 0.01 0.00 79 1015.3
20191017074001 56 158 5.0 10.0 0.00 0.01 0.00 80 1015.4
20191017073501 55 165 4.0 9.0 0.00 0.01 0.00 80 1015.4
20191017073117 55 168 5.0 11.0 0.00 0.01 0.00 80 1014.2
20191017073001 55 165 5.0 11.0 0.00 0.01 0.00 80 1015.4
20191017072501 55 156 5.0 11.0 0.00 0.01 0.00 80 1015.3
20191017071546 55 168 6.0 10.0 0.00 0.01 0.00 81 1015.3
20191017071047 55 163 5.0 10.0 0.00 0.01 0.00 81 1015.3
20191017070546 55 168 5.0 10.0 0.00 0.01 0.00 81 1015.3
20191017070047 55 162 2.0 8.0 0.00 0.01 0.00 81 1015.3
20191017065546 55 162 2.0 9.0 0.00 0.01 0.00 81 1015.2
20191017065046 55 158 5.0 9.0 0.00 0.01 0.00 81 1015.1
20191017064547 55 165 3.0 8.0 0.00 0.01 0.00 81 1015.1
20191017064046 55 164 4.0 7.0 0.00 0.01 0.00 81 1015.0
20191017063429 55 148 3.0 6.0 0.00 0.01 0.00 81 1014.9
20191017063019 54 159 3.0 7.0 0.00 0.01 0.00 81 1013.7
20191017062930 55 160 3.0 9.0 0.00 0.01 0.00 81 1014.9
20191017062429 55 153 2.0 9.0 0.00 0.01 0.00 81 1014.9
20191017061931 55 168 4.0 10.0 0.00 0.01 0.00 81 1014.8
20191017061542 54 159 5.0 10.0 0.00 0.01 0.00 81 1013.6
20191017061429 55 161 6.0 11.0 0.00 0.01 0.00 81 1014.8
20191017060929 55 157 5.0 11.0 0.00 0.01 0.00 81 1014.8
20191017060429 55 160 5.0 9.0 0.00 0.01 0.00 81 1014.7
20191017055929 55 154 2.0 8.0 0.00 0.01 0.00 81 1014.7
20191017055431 55 163 4.0 7.0 0.00 0.01 0.00 81 1014.6
20191017054724 55 167 3.0 7.0 0.00 0.01 0.00 81 1014.6
20191017054223 55 156 3.0 8.0 0.00 0.01 0.00 81 1014.5
20191017053723 55 180 2.0 8.0 0.00 0.01 0.00 81 1014.5
20191017053224 55 179 4.0 11.0 0.00 0.01 0.00 81 1014.5
20191017053128 54 183 2.0 10.0 0.00 0.01 0.00 81 1013.4
20191017052723 55 162 4.0 11.0 0.00 0.01 0.00 81 1014.6
20191017052223 55 170 4.0 10.0 0.00 0.01 0.00 81 1014.6
20191017051724 55 183 2.0 10.0 0.00 0.01 0.00 82 1014.5
20191017051527 54 153 5.0 10.0 0.00 0.01 0.00 82 1013.4
20191017051223 54 164 5.0 10.0 0.00 0.01 0.00 82 1014.5
20191017050723 54 166 4.0 7.0 0.00 0.01 0.00 82 1014.6
20191017050225 54 153 4.0 11.0 0.00 0.01 0.00 82 1013.4
20191017045539 54 162 4.0 11.0 0.00 0.01 0.00 82 1014.5
20191017045039 54 162 4.0 9.0 0.00 0.01 0.00 82 1014.5
20191017044539 55 161 5.0 10.0 0.00 0.01 0.00 82 1014.5
20191017044039 55 158 6.0 10.0 0.00 0.01 0.00 82 1014.5
20191017043539 55 166 5.0 9.0 0.00 0.01 0.00 82 1014.4
20191017042539 54 164 5.0 11.0 0.00 0.01 0.00 82 1014.3
20191017042040 54 163 4.0 11.0 0.00 0.01 0.00 82 1014.3
20191017041539 54 168 2.0 8.0 0.00 0.01 0.00 83 1014.3
20191017041522 54 165 2.0 8.0 0.00 0.01 0.00 83 1013.2
20191017041040 54 170 3.0 8.0 0.00 0.01 0.00 83 1014.2
20191017040540 54 181 3.0 8.0 0.00 0.01 0.00 84 1014.3
20191017040119 53 203 5.0 11.0 0.00 0.01 0.00 85 1013.2
20191017035835 54 181 2.0 8.0 0.00 0.01 0.00 85 1014.3
20191017035335 53 187 3.0 8.0 0.00 0.01 0.00 86 1014.4
20191017034835 53 175 1.0 8.0 0.00 0.01 0.00 86 1014.3
20191017034335 53 204 2.0 8.0 0.00 0.01 0.00 86 1014.5
20191017033835 53 162 4.0 8.0 0.00 0.01 0.00 87 1014.4
20191017033335 53 168 4.0 8.0 0.00 0.01 0.00 87 1014.5
20191017032835 53 194 3.0 6.0 0.00 0.01 0.00 87 1014.4
20191017032336 53 160 3.0 7.0 0.00 0.01 0.00 87 1014.4
20191017031835 53 163 4.0 7.0 0.00 0.01 0.00 87 1014.4
20191017031508 52 165 3.0 7.0 0.00 0.01 0.00 86 1013.3
20191017031336 53 159 4.0 7.0 0.00 0.01 0.00 86 1014.5
20191017030835 53 161 4.0 7.0 0.00 0.01 0.00 86 1014.4
20191017030335 53 167 4.0 7.0 0.00 0.01 0.00 86 1014.4
20191017030223 52 172 3.0 7.0 0.00 0.01 0.00 86 1013.2
20191017025836 53 175 2.0 9.0 0.00 0.01 0.00 86 1014.3
20191017025336 53 166 4.0 9.0 0.00 0.01 0.00 86 1014.3
20191017024835 53 172 2.0 7.0 0.00 0.01 0.00 86 1014.3
20191017024335 52 187 2.0 7.0 0.00 0.01 0.00 86 1014.2
20191017023836 52 178 2.0 7.0 0.00 0.01 0.00 86 1014.2
20191017023336 52 182 2.0 7.0 0.00 0.01 0.00 86 1014.2
20191017022836 52 181 1.0 6.0 0.00 0.01 0.00 86 1014.1
20191017022336 52 0 0.0 4.0 0.00 0.01 0.00 86 1014.1
20191017021640 51 168 3.0 8.0 0.00 0.01 0.00 86 1013.0
20191017021338 52 184 3.0 9.0 0.00 0.01 0.00 86 1014.1
20191017020837 52 188 4.0 8.0 0.00 0.01 0.00 86 1014.2
20191017020338 52 200 3.0 9.0 0.00 0.01 0.00 86 1014.2
20191017015838 52 208 1.0 9.0 0.00 0.01 0.00 86 1014.2
20191017015337 51 192 2.0 7.0 0.00 0.01 0.00 86 1014.2
20191017014838 51 190 2.0 9.0 0.00 0.01 0.00 87 1014.2
20191017014337 51 201 2.0 9.0 0.00 0.01 0.00 87 1014.2
20191017013658 51 183 2.0 11.0 0.00 0.01 0.00 87 1014.2
20191017013158 51 191 2.0 7.0 0.00 0.01 0.00 87 1014.3
20191017013138 50 178 2.0 7.0 0.00 0.01 0.00 87 1013.2
20191017012659 51 189 2.0 8.0 0.00 0.01 0.00 87 1014.3
20191017012158 51 201 3.0 8.0 0.00 0.01 0.00 87 1014.3
20191017011658 50 198 3.0 8.0 0.00 0.01 0.00 87 1014.3
20191017011158 50 189 2.0 7.0 0.00 0.01 0.00 87 1014.3
20191017010658 50 204 3.0 8.0 0.00 0.01 0.00 87 1014.2
20191017010158 50 219 2.0 8.0 0.00 0.01 0.00 87 1014.1
20191017005659 50 204 3.0 8.0 0.00 0.01 0.00 87 1014.1
20191017005200 50 204 2.0 7.0 0.00 0.01 0.00 87 1014.2
20191017004658 50 206 2.0 8.0 0.00 0.01 0.00 87 1014.2
20191017004159 50 215 2.0 8.0 0.00 0.01 0.00 87 1014.2
20191017003658 50 216 3.0 8.0 0.00 0.01 0.00 87 1014.2
20191017003159 50 213 3.0 8.0 0.00 0.01 0.00 87 1014.2
20191017002658 50 200 2.0 9.0 0.00 0.01 0.00 87 1014.2
20191017002159 51 194 3.0 9.0 0.00 0.01 0.00 87 1014.2
20191017001658 51 200 4.0 9.0 0.00 0.01 0.00 87 1014.1
20191017001520 50 213 4.0 9.0 0.00 0.01 0.00 87 1013.0
20191017001159 51 214 2.0 9.0 0.00 0.01 0.00 87 1014.1
20191017000659 51 214 3.0 10.0 0.00 0.01 0.00 87 1014.0
20191017000158 51 199 2.0 10.0 0.00 0.01 0.00 87 1014.1
20191016235658 51 222 3.0 8.0 0.00 0.01 0.00 87 1014.0
20191016234605 51 207 2.0 8.0 0.00 0.01 0.00 87 1014.0
20191016234104 51 202 4.0 10.0 0.00 0.01 0.00 87 1014.0
20191016233604 51 209 4.0 10.0 0.00 0.01 0.00 87 1013.9
20191016233150 50 205 4.0 8.0 0.00 0.01 0.00 87 1012.8
20191016233104 51 195 3.0 8.0 0.00 0.01 0.00 87 1013.9
20191016232605 51 197 3.0 10.0 0.00 0.01 0.00 87 1013.9
20191016232104 51 192 6.0 12.0 0.00 0.01 0.00 87 1013.8
20191016231604 51 193 4.0 12.0 0.00 0.01 0.00 87 1013.8
20191016231503 51 208 6.0 10.0 0.00 0.01 0.00 87 1012.7
20191016230946 51 216 2.0 9.0 0.00 0.01 0.00 87 1013.7
20191016230445 51 204 4.0 9.0 0.00 0.01 0.00 87 1013.8
20191016230132 51 209 4.0 10.0 0.00 0.01 0.00 87 1012.6
20191016225947 51 211 4.0 11.0 0.00 0.01 0.00 87 1013.7
20191016225446 51 211 4.0 11.0 0.00 0.01 0.00 87 1013.7
20191016224945 51 212 4.0 11.0 0.00 0.01 0.00 88 1013.6
20191016224445 52 213 3.0 12.0 0.00 0.01 0.00 88 1013.6
20191016223945 52 198 3.0 12.0 0.00 0.01 0.00 88 1013.6
20191016223446 52 205 3.0 9.0 0.00 0.01 0.00 88 1013.6
20191016222215 52 206 3.0 11.0 0.00 0.01 0.00 88 1013.5
20191016221715 52 211 4.0 11.0 0.00 0.01 0.00 87 1013.5
20191016221523 51 200 4.0 11.0 0.00 0.01 0.00 87 1012.3
20191016221215 52 214 2.0 12.0 0.00 0.01 0.00 87 1013.4
20191016220714 52 205 4.0 12.0 0.00 0.01 0.00 88 1013.4
20191016220215 52 209 5.0 12.0 0.00 0.01 0.00 88 1013.4
20191016220008 52 231 4.0 12.0 0.00 0.01 0.01 88 1012.3
20191016215715 52 208 6.0 14.0 0.00 0.01 0.01 88 1013.4
20191016214714 52 215 5.0 13.0 0.00 0.01 0.01 88 1013.4
20191016214215 52 215 3.0 14.0 0.00 0.01 0.01 89 1013.4
20191016213306 52 200 6.0 14.0 0.00 0.01 0.01 89 1012.2
20191016213157 52 201 6.0 14.0 0.00 0.01 0.01 89 1013.3
20191016212656 52 209 5.0 11.0 0.00 0.01 0.01 89 1013.3
20191016212156 52 211 6.0 11.0 0.00 0.01 0.01 90 1013.2
20191016211656 52 202 5.0 11.0 0.00 0.01 0.01 90 1013.2
20191016211525 52 200 4.0 11.0 0.00 0.01 0.01 90 1012.1
20191016211156 52 214 5.0 11.0 0.00 0.01 0.01 90 1013.2
20191016210656 52 203 5.0 11.0 0.00 0.01 0.01 90 1013.2
20191016210213 52 198 6.0 11.0 0.00 0.01 0.01 91 1012.0
20191016210156 52 202 6.0 11.0 0.00 0.01 0.01 91 1013.2
20191016205657 52 191 4.0 11.0 0.00 0.01 0.01 91 1013.1
20191016205157 52 195 4.0 13.0 0.00 0.01 0.01 91 1013.2
20191016204656 52 214 5.0 13.0 0.00 0.01 0.01 92 1013.1
20191016204101 52 187 4.0 12.0 0.00 0.01 0.01 92 1013.1
20191016203602 52 186 6.0 10.0 0.00 0.01 0.01 92 1013.0
20191016203103 52 200 5.0 10.0 0.00 0.01 0.01 92 1013.0
20191016202603 52 176 2.0 13.0 0.00 0.01 0.01 92 1013.0
20191016202103 52 195 4.0 13.0 0.00 0.01 0.01 92 1012.9
20191016201601 52 185 4.0 12.0 0.00 0.01 0.01 92 1012.9
20191016201539 52 188 3.0 9.0 0.00 0.01 0.01 92 1011.7
20191016201101 52 178 4.0 9.0 0.00 0.01 0.01 92 1013.0
20191016200634 52 169 5.0 11.0 0.00 0.01 0.01 92 1013.0
20191016200602 52 169 5.0 11.0 0.00 0.01 0.01 92 1013.0
20191016200148 52 187 4.0 10.0 0.00 0.01 0.01 92 1011.8
20191016200102 52 193 4.0 11.0 0.00 0.01 0.01 92 1013.0
20191016195437 52 201 5.0 9.0 0.00 0.01 0.01 92 1013.0
20191016194937 52 201 4.0 9.0 0.00 0.01 0.01 92 1012.9
20191016194438 52 207 3.0 10.0 0.00 0.01 0.01 92 1012.9
20191016193937 52 0 0.0 10.0 0.00 0.01 0.01 92 1012.9
20191016193437 52 192 3.0 9.0 0.00 0.01 0.01 92 1012.9
20191016192437 52 204 1.0 6.0 0.00 0.01 0.01 91 1012.7
20191016191553 52 222 4.0 13.0 0.00 0.01 0.01 90 1012.7
20191016191053 53 224 6.0 13.0 0.00 0.01 0.01 89 1012.7
20191016190552 53 212 8.0 13.0 0.00 0.01 0.01 88 1012.6
20191016190052 53 223 5.0 13.0 0.00 0.01 0.01 88 1012.7
20191016185629 53 220 5.0 12.0 0.00 0.01 0.01 87 1012.5
20191016185552 53 220 5.0 12.0 0.00 0.01 0.01 87 1012.5
20191016185052 53 212 5.0 15.0 0.00 0.01 0.01 87 1012.4
20191016184552 53 221 7.0 18.0 0.00 0.01 0.01 87 1012.4
20191016184052 53 210 8.0 18.0 0.00 0.01 0.01 87 1012.3
20191016183553 53 215 6.0 15.0 0.00 0.01 0.01 87 1012.3
20191016183052 53 227 6.0 13.0 0.00 0.01 0.01 87 1012.3
20191016182218 53 207 8.0 16.0 0.00 0.01 0.01 87 1012.2
20191016181718 53 221 7.0 15.0 0.00 0.01 0.01 87 1012.2
20191016181658 53 193 6.0 15.0 0.00 0.01 0.01 87 1011.1
20191016181219 53 208 7.0 15.0 0.00 0.01 0.01 87 1012.2
20191016180718 53 203 8.0 16.0 0.00 0.01 0.01 87 1012.2
20191016180218 53 205 7.0 17.0 0.00 0.01 0.01 86 1012.1
20191016180147 53 207 6.0 17.0 0.00 0.01 0.01 86 1011.0
20191016175718 53 209 8.0 17.0 0.00 0.01 0.01 86 1012.2
20191016175219 53 220 6.0 14.0 0.00 0.01 0.01 86 1012.1
20191016174718 53 205 6.0 17.0 0.00 0.01 0.01 87 1012.1
20191016174218 53 207 8.0 17.0 0.00 0.01 0.01 87 1012.1
20191016173719 53 213 5.0 13.0 0.00 0.01 0.01 87 1012.0
20191016172838 54 195 5.0 14.0 0.00 0.01 0.01 87 1012.1
20191016172339 54 195 3.0 13.0 0.00 0.01 0.01 88 1012.1
20191016171838 54 200 6.0 13.0 0.00 0.01 0.01 88 1012.1
20191016170838 54 196 4.0 11.0 0.00 0.01 0.01 88 1012.1
20191016170338 54 207 2.0 11.0 0.00 0.01 0.01 88 1012.1
20191016170019 54 194 3.0 8.0 0.00 0.01 0.01 87 1011.0
20191016165838 54 178 4.0 8.0 0.00 0.01 0.01 87 1012.2
20191016165338 54 193 3.0 8.0 0.00 0.01 0.01 87 1012.2
20191016164425 54 189 2.0 8.0 0.00 0.01 0.01 87 1012.2
20191016163925 54 207 3.0 8.0 0.00 0.01 0.01 87 1012.2
20191016163425 54 207 5.0 8.0 0.00 0.01 0.01 86 1012.1
20191016162926 55 216 3.0 9.0 0.00 0.01 0.01 86 1012.1
20191016162425 54 231 3.0 9.0 0.00 0.01 0.01 86 1012.0
20191016161925 55 219 3.0 12.0 0.00 0.01 0.01 86 1011.9
20191016161528 54 221 6.0 14.0 0.00 0.01 0.01 86 1010.8
20191016161425 55 223 6.0 14.0 0.00 0.01 0.01 86 1011.9
20191016160925 55 215 8.0 14.0 0.00 0.01 0.01 86 1011.9
20191016160426 55 221 6.0 13.0 0.00 0.01 0.01 86 1011.9
20191016160102 54 193 6.0 16.0 0.00 0.01 0.01 86 1010.7
20191016155402 55 211 7.0 15.0 0.00 0.01 0.01 86 1011.8
20191016154902 55 234 9.0 15.0 0.00 0.01 0.01 86 1011.9
20191016154403 55 222 6.0 15.0 0.00 0.01 0.01 86 1011.8
20191016153902 55 222 7.0 15.0 0.00 0.01 0.01 86 1011.8
20191016153402 55 225 8.0 14.0 0.00 0.01 0.01 87 1011.8
20191016152902 55 225 7.0 14.0 0.00 0.01 0.01 87 1011.8
20191016152440 55 221 8.0 14.0 0.00 0.01 0.01 87 1011.7
20191016152403 55 221 8.0 14.0 0.00 0.01 0.01 87 1011.7
20191016151551 54 221 8.0 20.0 0.00 0.01 0.01 88 1010.4
20191016151441 55 227 10.0 18.0 0.00 0.01 0.01 88 1011.6
20191016150732 55 210 6.0 18.0 0.00 0.01 0.01 88 1011.6
20191016150122 55 218 8.0 15.0 0.00 0.01 0.01 89 1011.4
20191016150012 54 194 6.0 16.0 0.00 0.01 0.01 89 1010.2
20191016145622 55 222 9.0 15.0 0.00 0.01 0.01 89 1011.4
20191016145123 55 228 7.0 14.0 0.00 0.01 0.01 89 1011.3
20191016144622 55 224 7.0 15.0 0.00 0.01 0.01 89 1011.3
20191016144122 55 242 6.0 18.0 0.00 0.01 0.01 90 1011.3
20191016143622 55 219 6.0 18.0 0.00 0.01 0.01 90 1011.3
20191016143122 55 221 9.0 16.0 0.00 0.01 0.01 90 1011.4
20191016142622 55 224 8.0 19.0 0.00 0.01 0.01 91 1011.4
20191016141545 54 215 8.0 15.0 0.00 0.01 0.01 90 1010.2
20191016141329 55 215 7.0 20.0 0.00 0.01 0.01 90 1011.3
20191016140830 55 227 7.0 20.0 0.00 0.01 0.01 91 1011.3
20191016140330 55 231 8.0 21.0 0.00 0.01 0.01 91 1011.3
20191016140140 54 202 11.0 21.0 0.00 0.01 0.01 91 1010.1
20191016135329 55 216 12.0 21.0 0.00 0.01 0.01 91 1011.3
20191016134329 55 220 10.0 17.0 0.00 0.01 0.01 92 1011.1
20191016133329 55 228 9.0 15.0 0.00 0.01 0.01 92 1011.0
20191016132600 55 229 10.0 20.0 0.00 0.01 0.01 92 1010.9
20191016132058 55 235 12.0 20.0 0.00 0.01 0.01 92 1010.9
20191016131558 55 221 9.0 19.0 0.00 0.01 0.01 92 1010.7
20191016131503 54 202 9.0 19.0 0.00 0.01 0.01 92 1009.6
20191016131057 55 221 8.0 19.0 0.00 0.01 0.01 92 1010.7
20191016130557 55 229 12.0 19.0 0.00 0.01 0.01 92 1010.6
20191016130121 55 246 10.0 17.0 0.00 0.01 0.01 92 1009.3
20191016130059 55 230 11.0 17.0 0.00 0.01 0.01 92 1010.5
20191016125557 56 227 8.0 17.0 0.00 0.01 0.01 92 1010.5